Regional Weather Roundup
Issued by NWS Albany, NY

Home | Current Version | Previous Version | Text Only | Print | Product List | Glossary On
Versions: 1 2 3 4 5 6 7 8 9 10 11 12 13 14 15 16 17 18 19 20 21 22 23 24 25 26 27
000
ASUS41 KALY 221410
RWRALY

NEW YORK STATE HOURLY WEATHER ROUNDUP
NATIONAL WEATHER SERVICE ALBANY NY
1000 AM EDT MON MAY 22 2017

NOTE: "FAIR" INDICATES FEW OR NO CLOUDS BELOW 12,000 FEET WITH NO
SIGNIFICANT WEATHER AND/OR NO OBSTRUCTIONS TO VISIBILITY.

NYZ032-033-038>043-046>054-057>066-NYZ062>081-082-084-221500-
EAST


CITY           SKY/WX    TMP DP  RH WIND       PRES   REMARKS
ALBANY         LGT RAIN  55  44  66 S12       30.09F
GLENS FALLS    NOT AVBL
POUGHKEEPSIE   CLOUDY    56  46  69 S8        30.13F
MONTGOMERY     CLOUDY    56  49  77 S7        30.12F
WHITE PLAINS   CLOUDY    55  50  83 SE9       30.14F
ISLIP          CLOUDY    56  51  84 S13       30.16F
NEW YORK CITY  LGT RAIN  58  52  80 SE10      30.14F
CENTRAL PARK   CLOUDY    55  53  93 VRB5      30.16F FOG
$$

NYZ005>009-017-018-044>046-055-056-221500-
CENTRAL


CITY           SKY/WX    TMP DP  RH WIND       PRES   REMARKS
FULTON         CLOUDY    57  53  86 VRB7      29.96F
SYRACUSE       CLOUDY    60  54  80 SE7       29.96F
ROME           CLOUDY    52  50  93 E9        30.03F
ELMIRA         CLOUDY    62  53  72 S8        29.98F
BINGHAMTON     CLOUDY    56  50  80 S8        30.01F
MONTICELLO     CLOUDY    52  48  87 SE7       30.12F
$$

NYZ026>034-041>043-087-221500-
NORTH


CITY           SKY/WX    TMP DP  RH WIND       PRES   REMARKS
WATERTOWN      CLOUDY    57  53  86 S6        29.94F
FORT DRUM      NOT AVBL
OGDENSBURG     LGT RAIN  56  52  85 S7        29.95F
MASSENA        CLOUDY    56  54  93 E3        29.97F
SARANAC LAKE   CLOUDY    50  50 100 S5        29.99F FOG
PLATTSBURGH    CLOUDY    51  46  83 S13       30.04F
$$

NYZ001>004-010>016-019>021-085-221500-
WEST


CITY           SKY/WX    TMP DP  RH WIND       PRES   REMARKS
NIAGARA FALLS  CLOUDY    62  56  80 SW13      29.92S
BUFFALO        PTSUNNY   57  50  77 SW18G29   29.94S
DUNKIRK        CLOUDY    58  49  72 SW20G28   29.98S
JAMESTOWN      CLOUDY    55  48  76 SW12      29.99S
WELLSVILLE     LGT RAIN  57  55  93 VRB5      29.99F FOG
ROCHESTER      CLOUDY    65  57  75 SW12G22   29.92F
PENN YAN       CLOUDY    61  51  70 SW10      29.96F
$$

             KEY
       WCI = WIND CHILL INDEX
       VSB = VISIBILITY
       HX  = HEAT INDEX
$$




USA.gov is the U.S. government's official web portal to all federal, state and local government web resources and services.